Weather History for Frankfort, KY

Change the Weather History Date:

Thursday, September 18, 2014

  Actual Average Record
Temperature  
Mean Temperature 63 °F 67 °F  
Max Temperature 74 °F 79 °F 96 °F (1954)
Min Temperature 52 °F 55 °F 38 °F (1937)
Degree Days  
Heating Degree Days 2 2  
Month to date heating degree days 36 11  
Since 1 July heating degree days 39 12  
Cooling Degree Days 0 4  
Month to date cooling degree days 100 103  
Year to date cooling degree days 1026 1105  
Growing Degree Days 13 (Base 50)    
Moisture  
Dew Point 51 °F    
Average Humidity 67    
Maximum Humidity 93    
Minimum Humidity 41    
Precipitation  
Precipitation 0.00 in 0.09 in 1.30 in (1992)
Month to date precipitation 2.83 2.06  
Year to date precipitation 36.12 33.37  
Sea Level Pressure  
Sea Level Pressure 30.04 in    
Wind  
Wind Speed 4 mph (NE)    
Max Wind Speed 13 mph    
Max Gust Speed 17 mph    
Visibility 9 miles    
Events      
T = Trace of Precipitation, MM = Missing Value Source: NWS Daily Summary

Daily Weather History Graph

Daily Weather History Graph

Search for Another Location

Airport:

Trip Planner

Search our weather history database for the weather conditions in past years. The results will help you decide how hot, cold, wet, or windy it might be!

Date:

Astronomy

Sep. 18, 2014 Rise Set
Actual Time 7:23 AM EDT 7:42 PM EDT
Civil Twilight 6:57 AM EDT 8:09 PM EDT
Nautical Twilight 6:26 AM EDT 8:40 PM EDT
Astronomical Twilight 5:54 AM EDT 9:11 PM EDT
Moon 2:18 AM EDT (9/18) 4:30 PM EDT (9/18)
Length of Visible Light 13h 11m
Length of Day
12h 18m
Waning Crescent, 26% of the Moon is Illuminated
Sep 18
Waning Crescent
Sep 24
New
Oct 1
First Quarter
Oct 8
Full
Oct 15
Last Quarter

Hourly Weather History & Observations

Time (EDT) Temp. Dew Point Humidity Pressure Visibility Wind Dir Wind Speed Gust Speed Precip Events Conditions
12:53 AM 54.0 °F 52.0 °F 93% 30.00 in 8.0 mi NW 3.5 mph - N/A   Scattered Clouds
1:53 AM 54.0 °F 52.0 °F 93% 30.01 in 9.0 mi NNW 3.5 mph - N/A   Overcast
2:53 AM 57.0 °F 52.0 °F 83% 30.01 in 10.0 mi Calm Calm - N/A   Overcast
3:53 AM 55.0 °F 52.0 °F 89% 30.00 in 9.0 mi Calm Calm - N/A   Scattered Clouds
4:53 AM 53.1 °F 51.1 °F 93% 30.00 in 7.0 mi Calm Calm - N/A   Partly Cloudy
5:53 AM 54.0 °F 52.0 °F 93% 30.01 in 8.0 mi Calm Calm - N/A   Overcast
6:53 AM 53.1 °F 52.0 °F 96% 30.01 in 6.0 mi Calm Calm - N/A   Mostly Cloudy
8:53 AM 57.0 °F 51.1 °F 81% 30.06 in 10.0 mi NNE 3.5 mph - N/A   Overcast
9:53 AM 61.0 °F 52.0 °F 72% 30.06 in 10.0 mi NNE 5.8 mph - N/A   Partly Cloudy
10:53 AM 64.0 °F 51.1 °F 63% 30.08 in 10.0 mi NE 9.2 mph - N/A   Clear
11:53 AM 66.9 °F 51.1 °F 57% 30.08 in 10.0 mi East 8.1 mph - N/A   Clear
1:53 PM 71.1 °F 53.1 °F 53% 30.06 in 10.0 mi East 8.1 mph - N/A   Clear
2:53 PM 71.1 °F 50.0 °F 47% 30.05 in 10.0 mi NNE 6.9 mph - N/A   Partly Cloudy
3:53 PM 73.0 °F 50.0 °F 44% 30.04 in 10.0 mi ENE 8.1 mph - N/A   Partly Cloudy
4:53 PM 73.0 °F 50.0 °F 44% 30.02 in 10.0 mi ENE 8.1 mph - N/A   Clear
5:53 PM 73.0 °F 48.9 °F 42% 30.02 in 10.0 mi ENE 5.8 mph - N/A   Clear
6:53 PM 70.0 °F 48.9 °F 47% 30.03 in 10.0 mi ENE 5.8 mph - N/A   Clear
7:53 PM 66.0 °F 50.0 °F 56% 30.04 in 10.0 mi ENE 3.5 mph - N/A   Clear
8:53 PM 60.1 °F 52.0 °F 75% 30.06 in 10.0 mi Calm Calm - N/A   Clear
9:53 PM 57.0 °F 52.0 °F 83% 30.08 in 10.0 mi North 3.5 mph - N/A   Clear
10:53 PM 54.0 °F 51.1 °F 90% 30.09 in 10.0 mi Calm Calm - N/A   Clear
11:53 PM 54.0 °F 51.1 °F 90% 30.09 in 10.0 mi Calm Calm - N/A   Clear